Location: El Portezuelo
(28.4984°N, 16.3589°W)
Time: 00:23:36
(UTC+00:00)

Daily predictions for brighter satellites

Satellite Brightness Start Highest point End
(mag) Time Altitude Azimuth Time Altitude Azimuth Time Altitude Azimuth
Cosmos 2219 3.9 05:23:47 50° ESE 05:23:47 50° ESE 05:28:23 10° SSE
Cosmos 2344 3.5 05:37:54 61° NNW 05:37:54 61° NNW 05:44:37 10° NNE
Cosmos 2297 Rocket 2.8 05:37:57 46° NNE 05:39:01 53° ENE 05:44:32 10° SE
Cosmos 2360 4.4 05:40:07 40° S 05:42:08 68° ESE 05:47:49 10° NNE
Nadezhda 1 Rocket 4.2 05:39:46 10° S 05:45:47 67° E 05:51:47 10° NNE
SEDSat Delta rocket 3.8 05:47:07 67° NNE 05:47:07 67° NNE 05:52:29 10° ENE
Cosmos 2227 Rocket 2.5 05:49:13 41° N 05:51:03 62° ENE 05:56:36 10° SSE
ALOS 3.3 05:50:52 10° NNE 05:55:20 45° E 05:59:47 10° S
Cosmos 2278 3.5 05:59:09 70° WSW 05:59:35 74° WNW 06:05:18 10° NNE
CZ-3 R/B 3.0 05:50:20 35° W 06:00:58 89° S 06:07:56 10° E
SL-14 R/B 3.6 06:06:32 60° SE 06:06:32 60° SE 06:09:49 10° S
CZ-3B R/B 2.1 06:09:22 27° SSE 06:09:22 27° SSE 06:11:31 10° SE
STARLINK-21 4.5 06:14:02 36° NNE 06:14:02 36° NNE 06:16:38 10° NNE
SL-16 R/B 4.5 06:08:55 10° SSE 06:13:24 25° ESE 06:17:54 10° NE
Cosmos 1626 2.1 06:14:15 76° SE 06:14:15 76° SE 06:17:43 10° S
METEOR-M 4.2 06:09:53 10° NNE 06:15:15 77° ESE 06:20:35 10° S
STARLINK-76 4.4 06:18:49 36° N 06:18:49 36° N 06:21:34 10° NNE
Cosmos 2184 Rocket 3.9 06:12:57 12° NNW 06:18:43 65° W 06:24:54 10° S
STARLINK 4.4 06:20:25 36° N 06:20:25 36° N 06:23:12 10° NNE
Okean O Rocket 2.8 06:16:11 10° NNE 06:20:25 43° E 06:24:37 10° S
STARLINK-32 4.4 06:22:01 36° N 06:22:01 36° N 06:24:52 10° NNE
Milstar 3 Cent rocket 4.3 06:04:32 10° WSW 06:21:25 58° SSE 06:29:12 10° E
COSMOS 2455 2.7 06:15:30 10° SSW 06:21:28 71° WNW 06:27:28 10° NNE
STARLINK-40 4.4 06:23:37 36° N 06:23:37 36° N 06:26:30 10° NNE
Cosmos 1626 Rocket 3.4 06:22:42 45° NNW 06:23:51 66° W 06:28:10 10° S
STARLINK-44 4.4 06:25:12 35° N 06:25:12 35° N 06:28:07 10° NNE
STARLINK-37 4.5 06:27:01 32° NNW 06:27:01 32° NNW 06:29:49 10° NNE
Cosmos 2154 Rocket 4.0 06:20:30 10° N 06:26:43 86° E 06:32:55 10° S
OAO 1 4.5 06:24:49 33° WSW 06:27:21 86° SSE 06:32:52 10° ENE
STARLINK-36 4.3 06:28:23 34° NNW 06:28:23 34° NNW 06:31:24 10° NNE
ATLAS 2AS CENTAUR R/B 3.0 06:21:14 10° SSW 06:29:01 88° WNW 06:37:06 10° NNE
Cosmos 1980 Rocket 2.3 06:25:33 10° SW 06:31:04 53° WNW 06:36:37 10° N
PAYLOAD B 4.2 06:25:39 10° NNE 06:31:17 86° ESE 06:36:53 10° SSW
STARLINK-35 4.4 06:33:09 32° NNW 06:33:09 32° NNW 06:36:16 10° NNE
Cosmos 1726 2.8 06:29:30 10° S 06:33:06 54° E 06:36:41 10° NNE
CZ-4B R/B 3.6 06:28:07 10° NNE 06:33:36 64° ESE 06:38:56 10° S
STARLINK-51 4.4 06:34:45 31° NNW 06:34:45 31° NNW 06:37:53 10° NNE
STARLINK-30 4.4 06:36:21 31° NNW 06:36:21 31° NNW 06:39:32 10° NNE
OAO 3 Copernicus 4.2 06:33:57 35° WNW 06:36:05 88° NNE 06:41:08 10° ESE
CZ-3 Stage 3 2.4 06:33:09 28° W 06:36:37 78° SSW 06:39:35 10° ESE
STARLINK-72 4.5 06:37:57 30° NNW 06:37:57 30° NNW 06:41:09 10° NNE
Cosmos 44 4.2 06:38:08 26° WSW 06:38:08 26° WSW 06:41:43 10° SSW
STARLINK-50 4.5 06:39:32 29° NW 06:39:32 29° NW 06:42:46 10° NNE
Cosmos 1697 Rocket 4.1 06:41:33 18° NW 06:41:33 18° NW 06:43:56 10° NNW
FENGYUN 3A 3.7 06:37:00 10° N 06:42:16 57° WNW 06:47:33 10° SSW
Cosmos 1610 Rocket 4.5 06:36:26 10° NNW 06:42:38 63° W 06:48:52 10° S
Cosmos 1825 Rocket 4.5 06:39:27 10° N 06:43:39 49° E 06:47:51 10° SSE
Cosmos 1953 2.6 06:42:00 10° SSW 06:45:49 42° W 06:49:41 10° N
STARLINK 1028 3.5 06:43:41 10° SSW 06:46:30 51° SE 06:49:20 10° NE
STARLINK 1021 3.5 06:43:55 10° SSW 06:46:44 51° SE 06:49:34 10° NE
STARLINK 1019 3.5 06:44:09 10° SSW 06:46:58 51° SE 06:49:47 10° NE
STARLINK 1012 3.5 06:44:21 10° SSW 06:47:11 52° SE 06:50:01 10° NE
STARLINK 1010 3.4 06:44:34 10° SSW 06:47:23 52° SE 06:50:13 10° NE
STARLINK 1026 3.4 06:44:48 10° SSW 06:47:37 53° SE 06:50:28 10° NE
STARLINK 1013 3.4 06:45:01 10° SSW 06:47:50 53° SE 06:50:41 10° NE
STARLINK 1009 3.4 06:45:14 10° SSW 06:48:04 54° SE 06:50:54 10° NE
Meteor 1-21 Rocket 4.4 06:42:19 10° N 06:48:14 81° E 06:54:09 10° S
STARLINK 1015 3.4 06:45:28 10° SSW 06:48:18 54° SE 06:51:08 10° NE
STARLINK 1016 3.4 06:45:42 10° SSW 06:48:31 55° SE 06:51:23 10° NE
STARLINK 1008 3.3 06:45:54 10° SSW 06:48:45 55° SE 06:51:36 10° NE
STARLINK 1025 3.3 06:46:22 10° SSW 06:49:11 56° SE 06:52:02 10° NE
STARLINK 1014 3.3 06:46:22 10° SSW 06:49:12 56° SE 06:52:04 10° NE
STARLINK 1017 3.3 06:46:35 10° SSW 06:49:25 57° SE 06:52:16 10° NE
STARLINK 1060 4.2 06:46:02 10° SSW 06:49:26 48° SE 06:52:51 10° NE
STARLINK 1023 3.3 06:46:48 10° SSW 06:49:38 57° SE 06:52:29 10° NE
STARLINK 1007 3.2 06:47:02 10° SSW 06:49:52 58° SE 06:52:44 10° NE
STARLINK 1048 3.2 06:47:15 10° SSW 06:50:06 58° SE 06:52:57 10° NE
COSMO-SKYMED 1 2.6 06:45:55 10° S 06:50:09 55° W 06:54:25 10° NNW
STARLINK 1049 3.2 06:47:28 10° SSW 06:50:19 59° SE 06:53:12 10° NE
STARLINK 1051 3.2 06:47:41 10° SSW 06:50:32 59° SE 06:53:24 10° NE
Gbstr 26 Del rocket 4.2 06:43:59 10° SW 06:50:37 86° NW 06:58:28 10° NE
Cosmos 44 Rocket 3.8 06:47:17 10° NNW 06:51:56 57° ENE 06:56:38 10° SE
STARLINK 1030 4.0 06:48:36 10° SSW 06:52:02 52° SE 06:55:30 10° NE
Cosmos 1295 Rocket 4.4 06:46:08 10° N 06:52:19 77° W 06:58:23 10° S
Cosmos 923 Rocket 3.9 06:47:21 10° SSW 06:52:33 71° WNW 06:57:49 10° N
Cosmos 1606 Rocket 3.5 06:48:59 10° SSW 06:53:25 67° W 06:57:50 10° N
Delta 128 3.9 06:50:44 23° W 06:53:29 62° SSW 06:58:26 10° ESE
STARLINK 1020 3.9 06:51:12 10° SSW 06:54:40 57° SE 06:58:08 10° NE
PSLV R/B 3.8 06:55:36 19° NNE 06:55:36 19° NNE 06:56:30 10° NE
SMAP 4.5 06:51:09 10° NNE 06:55:33 42° E 06:59:56 10° S
Cosmos 1726 Rocket 3.5 06:51:28 10° S 06:55:55 82° W 07:00:22 10° N
STARLINK 1034 3.7 06:53:48 10° SSW 06:57:18 62° SE 07:00:48 10° NE
OE (NEXTSAT) 4.4 06:55:21 10° SW 06:58:51 79° SE 07:02:21 10° NE
Lacrosse 5 2.5 06:56:16 10° SSW 07:01:14 59° ESE 07:06:13 10° NE
STARLINK 1033 3.4 06:59:04 10° SW 07:02:35 73° SE 07:06:08 10° NE
STARLINK 1035 3.1 06:59:18 10° SW 07:02:35 77° SE 07:05:53 10° NE
Cosmos 962 Rocket 4.5 06:57:09 10° N 07:03:26 76° W 07:09:45 10° S
STARLINK 1027 2.9 07:01:21 10° SW 07:04:39 90° NNW 07:07:57 10° NE
SWAS 4.4 07:03:27 10° NNW 07:07:42 70° WSW 07:11:56 10° SSE
Cosmos 2082 4.2 07:05:25 10° NW 07:10:41 40° WSW 07:15:58 10° S
Cosmos 2181 Rocket 4.0 07:08:42 10° SSW 07:14:42 57° W 07:20:50 10° N
USA 32 4.0 07:09:45 10° N 07:14:59 74° W 07:20:12 10° S
Cosmos 2322 Rocket 2.2 07:13:33 10° SSW 07:19:11 90° E 07:24:53 10° NNE
STARLINK 1044 3.2 07:18:03 10° SW 07:21:34 61° NW 07:25:06 10° NNE
Cosmos 2297 Rocket 3.8 07:19:50 11° WNW 07:22:29 14° W 07:25:23 10° SW
AQUARIUS 4.2 07:19:54 10° NNE 07:24:24 86° ESE 07:28:53 10° SSW
Cosmos 2228 3.9 07:22:45 10° SW 07:26:31 28° W 07:30:19 10° NNW
Cosmos 2341 Rocket 4.2 07:23:43 10° NNW 07:29:40 48° W 07:35:34 10° SSW
ALOS 3.9 07:30:15 10° NW 07:32:17 13° WNW 07:34:20 10° W
SL-8 Rocket 4.0 07:27:25 10° NNW 07:33:32 65° W 07:39:36 10° S
SEDSat Delta rocket 3.6 07:27:38 10° WNW 07:33:35 76° N 07:38:43 10° E
Cosmos 2227 Rocket 3.9 07:32:25 10° WNW 07:34:26 12° W 07:36:26 10° WSW
ATLAS 2A CENTAUR R/B 3.9 07:19:45 10° W 07:38:06 57° SSW 07:42:18 10° SE
